Bismarck, ND

9:08 AM CST on December 05, 2016 (GMT -0600)
Bismarck Municipal

Weather History for KBIS - November, 2012

Change the Weather History Date:

Wednesday, November 28, 2012

  Actual Average Record
Temperature  
Mean Temperature 23 °F 22 °F  
Max Temperature 34 °F 32 °F 62 °F (2002)
Min Temperature 12 °F 13 °F -25 °F (1875)
Degree Days  
Heating Degree Days 42 42  
Month to date heating degree days 998 986  
Since 1 July heating degree days 1913 1898  
Cooling Degree Days 0 0  
Month to date cooling degree days 0 0  
Year to date cooling degree days 599 520  
Moisture  
Dew Point 18 °F    
Average Humidity 85    
Maximum Humidity 100    
Minimum Humidity 69    
Precipitation  
Precipitation 0.00 in 0.02 in 0.38 in (2016)
Month to date precipitation 1.07 0.68  
Year to date precipitation 14.27 17.33  
Snow  
Snow 0.00 in 0.30 in 9.90 in (2016)
Month to date snowfall 10.5 8.2  
Since 1 July snowfall 10.5 10.6  
Since 1 September snowfall 10.5 10.6  
Snow Depth T in    
Sea Level Pressure  
Sea Level Pressure 30.17 in    
Wind  
Wind Speed 4 mph (ESE)    
Max Wind Speed 13 mph    
Max Gust Speed 15 mph    
Visibility 4 miles    
Events Fog    
T = Trace of Precipitation, MM = Missing Value Source: NWS Daily Summary

Daily Weather History Graph

Daily Weather History Graph

Search for Another Location

Airport or City:

Trip Planner

Search our weather history database for the weather conditions in past years. The results will help you decide how hot, cold, wet, or windy it might be!

Date:

Astronomy

Nov. 28, 2012 Rise Set
Actual Time 8:04 AM CST 4:57 PM CST
Civil Twilight 7:29 AM CST 5:32 PM CST
Nautical Twilight 6:52 AM CST 6:09 PM CST
Astronomical Twilight 6:15 AM CST 6:46 PM CST
Moon 5:13 PM CST (11/28) 8:03 AM CST (11/28)
Length of Visible Light 10h 02m
Length of Day
8h 53m
Full, 100% of the Moon is Illuminated
Nov 28
Full
Dec 6
Last Quarter
Dec 13
New
Dec 19
First Quarter
Dec 28
Full

Hourly Weather History & Observations

Time (CST) Temp. Windchill Dew Point Humidity Pressure Visibility Wind Dir Wind Speed Gust Speed Precip Events Conditions
12:23 AM 12.2 °F 0.7 °F 10.4 °F 92% 30.23 in 7.0 mi ENE 8.1 mph - N/A   Scattered Clouds
12:30 AM 14.0 °F 6.5 °F 12.2 °F 93% 30.23 in 8.0 mi NE 4.6 mph - N/A   Mostly Cloudy
12:38 AM 15.8 °F 10.2 °F 14.0 °F 93% 30.24 in 1.2 mi East 3.5 mph - N/A   Mostly Cloudy
12:41 AM 15.8 °F 10.2 °F 14.0 °F 93% 30.23 in 0.5 mi East 3.5 mph - N/A Fog Light Freezing Fog
12:49 AM 15.8 °F 10.2 °F 15.8 °F 100% 30.23 in 0.2 mi ENE 3.5 mph - N/A Fog Light Freezing Fog
12:52 AM 16.0 °F 10.4 °F 15.1 °F 96% 30.32 in 0.2 mi ENE 3.5 mph - N/A Fog Light Freezing Fog
1:03 AM 17.6 °F - 15.8 °F 93% 30.23 in 0.2 mi Calm Calm - N/A Fog Light Freezing Fog
1:11 AM 17.6 °F 12.3 °F 17.6 °F 100% 30.23 in 0.2 mi East 3.5 mph - N/A Fog Light Freezing Fog
1:52 AM 19.0 °F 13.9 °F 18.0 °F 96% 30.31 in 0.2 mi SE 3.5 mph - N/A Fog Light Freezing Fog
2:11 AM 19.4 °F 11.5 °F 17.6 °F 93% 30.23 in 0.2 mi South 5.8 mph - N/A Fog Light Freezing Fog
2:20 AM 19.4 °F 12.8 °F 17.6 °F 93% 30.23 in 0.2 mi SSE 4.6 mph - N/A Fog Light Freezing Fog
2:52 AM 19.9 °F 14.9 °F 19.0 °F 96% 30.30 in 0.2 mi ESE 3.5 mph - N/A Fog Light Freezing Fog
3:20 AM 21.2 °F 16.4 °F 17.6 °F 86% 30.21 in 0.2 mi SSE 3.5 mph - N/A Fog Light Freezing Fog
3:28 AM 19.4 °F 14.3 °F 17.6 °F 93% 30.21 in 0.5 mi SSE 3.5 mph - N/A Fog Light Freezing Fog
3:34 AM 21.2 °F 14.9 °F 17.6 °F 86% 30.21 in 0.2 mi SSE 4.6 mph - N/A Fog Light Freezing Fog
3:52 AM 21.0 °F 12.4 °F 18.0 °F 88% 30.28 in 0.2 mi SSE 6.9 mph - N/A Fog Light Freezing Fog
4:18 AM 19.4 °F 11.5 °F 17.6 °F 93% 30.19 in 0.2 mi SE 5.8 mph - N/A Fog Light Freezing Fog
4:52 AM 19.0 °F 13.9 °F 16.0 °F 88% 30.26 in 0.2 mi SSE 3.5 mph - N/A Fog Light Freezing Fog
5:38 AM 19.4 °F 12.8 °F 15.8 °F 86% 30.16 in 0.2 mi East 4.6 mph - N/A Fog Light Freezing Fog
5:52 AM 18.0 °F 12.7 °F 15.1 °F 88% 30.24 in 0.5 mi ESE 3.5 mph - N/A Fog Light Freezing Fog
6:10 AM 17.6 °F 10.7 °F 15.8 °F 93% 30.14 in 0.8 mi East 4.6 mph - N/A   Mist
6:18 AM 17.6 °F 10.7 °F 15.8 °F 93% 30.14 in 0.5 mi East 4.6 mph - N/A Fog Light Freezing Fog
6:25 AM 17.6 °F 10.7 °F 15.8 °F 93% 30.14 in 1.0 mi ESE 4.6 mph - N/A   Mist
6:45 AM 17.6 °F 12.3 °F 12.2 °F 79% 30.13 in 3.0 mi SSE 3.5 mph - N/A   Overcast
6:52 AM 16.0 °F 10.4 °F 12.0 °F 84% 30.23 in 5.0 mi SSE 3.5 mph - N/A   Mostly Cloudy
7:07 AM 14.0 °F 8.2 °F 10.4 °F 86% 30.13 in 7.0 mi SSE 3.5 mph - N/A   Scattered Clouds
7:17 AM 14.0 °F 6.5 °F 10.4 °F 86% 30.13 in 1.0 mi SE 4.6 mph - N/A   Scattered Clouds
7:23 AM 14.0 °F - 10.4 °F 86% 30.13 in 0.5 mi Calm Calm - N/A   Mostly Cloudy
7:43 AM 15.8 °F - 10.4 °F 79% 30.13 in 0.5 mi Calm Calm - N/A Fog Light Freezing Fog
7:52 AM 14.0 °F - 10.9 °F 88% 30.21 in 2.0 mi Calm Calm - N/A   Overcast
7:59 AM 14.0 °F - 10.4 °F 86% 30.12 in 3.0 mi Calm Calm - N/A   Scattered Clouds
8:52 AM 18.0 °F 12.7 °F 14.0 °F 84% 30.19 in 7.0 mi East 3.5 mph - N/A   Clear
9:52 AM 21.0 °F 16.2 °F 18.0 °F 88% 30.19 in 8.0 mi SE 3.5 mph - N/A   Clear
10:52 AM 24.1 °F 19.7 °F 21.0 °F 88% 30.18 in 10.0 mi SSE 3.5 mph - N/A   Clear
11:52 AM 26.1 °F - 24.1 °F 92% 30.16 in 10.0 mi Calm Calm - N/A   Clear
12:52 PM 28.0 °F 22.8 °F 26.1 °F 92% 30.11 in 10.0 mi ESE 4.6 mph - N/A   Clear
1:52 PM 30.9 °F 27.5 °F 26.1 °F 82% 30.08 in 10.0 mi SSE 3.5 mph - N/A   Clear
2:52 PM 33.1 °F - 26.1 °F 75% 30.06 in 10.0 mi Calm Calm - N/A   Clear
3:52 PM 33.1 °F - 26.1 °F 75% 30.06 in 10.0 mi Calm Calm - N/A   Mostly Cloudy
4:52 PM 33.1 °F - 25.0 °F 72% 30.06 in 10.0 mi Calm Calm - N/A   Clear
5:52 PM 28.9 °F 25.2 °F 24.1 °F 82% 30.09 in 10.0 mi NE 3.5 mph - N/A   Clear
6:52 PM 27.0 °F - 23.0 °F 85% 30.10 in 10.0 mi Calm Calm - N/A   Clear
7:52 PM 24.1 °F - 21.9 °F 91% 30.11 in 10.0 mi Calm Calm - N/A   Clear
8:52 PM 27.0 °F 18.0 °F 21.9 °F 81% 30.12 in 10.0 mi NE 9.2 mph - N/A   Clear
9:52 PM 25.0 °F 17.1 °F 19.9 °F 81% 30.12 in 10.0 mi NE 6.9 mph - N/A   Clear
10:52 PM 21.9 °F 10.4 °F 19.0 °F 89% 30.15 in 9.0 mi NE 11.5 mph - N/A   Mostly Cloudy
11:04 PM 23.0 °F 13.1 °F 19.4 °F 86% 30.06 in 8.0 mi NE 9.2 mph - N/A   Mostly Cloudy
11:52 PM 24.1 °F 13.1 °F 21.0 °F 88% 30.14 in 8.0 mi ENE 11.5 mph - N/A   Overcast